QPF
0.00 0.00 0.00 0.00 0.00 0.00 0.00 0.00 0.00 0.00 0.00 0.00 0.00 0.00 0.00 0.00 0.00 0.00 0.00 0.00 0.00 0.00 0.00 0.00 0.00 0.00 0.00 0.00 0.01 0.01 0.01 0.02 0.03 0.02 0.02 0.03 0.05 0.06 0.05 0.03 0.02 0.03 0.04 0.04
0.00 0.00 0.00 0.00 0.00 0.00 0.00 0.00 0.00 0.00 0.00 0.00 0.00 0.00 0.00 0.00 0.00 0.00 0.00 0.00 0.00 0.00 0.00 0.00 0.00 0.00 0.00 0.00 0.01 0.01 0.01 0.01 0.02 0.03 0.02 0.02 0.04 0.05 0.06 0.04 0.04 0.03 0.05 0.07
0.00 0.00 0.00 0.00 0.00 0.00 0.00 0.00 0.00 0.00 0.00 0.00 0.00 0.00 0.00 0.00 0.01 0.01 0.01 0.00 0.00 0.00 0.00 0.00 0.00 0.00 0.00 0.01 0.01 0.01 0.01 0.01 0.01 0.01 0.02 0.02 0.03 0.03 0.03 0.04 0.05 0.05 0.07 0.09
0.00 0.00 0.00 0.00 0.00 0.00 0.00 0.00 0.00 0.00 0.00 0.00 0.00 0.00 0.00 0.00 0.00 0.00 0.01 0.00 0.00 0.00 0.00 0.00 0.00 0.00 0.00 0.01 0.00 0.01 0.01 0.01 0.01 0.01 0.02 0.02 0.03 0.03 0.03 0.02 0.04 0.05 0.06 0.07
0.00 0.00 0.00 0.00 0.00 0.00 0.00 0.00 0.00 0.00 0.00 0.00 0.00 0.00 0.00 0.00 0.00 0.00 0.00 0.00 0.00 0.00 0.00 0.00 0.00 0.00 0.00 0.00 0.00 0.00 0.01 0.01 0.01 0.01 0.01 0.02 0.02 0.02 0.02 0.02 0.03 0.04 0.04 0.04
0.00 0.00 0.00 0.00 0.00 0.00 0.00 0.00 0.00 0.00 0.00 0.00 0.00 0.00 0.00 0.00 0.00 0.00 0.00 0.00 0.00 0.00 0.00 0.00 0.00 0.00 0.00 0.00 0.00 0.00 0.01 0.02 0.01 0.01 0.01 0.01 0.02 0.02 0.02 0.03 0.03 0.04 0.04 0.03
0.00 0.00 0.00 0.00 0.00 0.00 0.00 0.00 0.00 0.00 0.00 0.00 0.00 0.00 0.00 0.00 0.00 0.00 0.00 0.00 0.00 0.00 0.00 0.00 0.00 0.00 0.00 0.00 0.00 0.00 0.01 0.01 0.00 0.00 0.01 0.01 0.02 0.02 0.02 0.02 0.02 0.03 0.02 0.02
0.00 0.00 0.00 0.00 0.00 0.00 0.00 0.00 0.00 0.00 0.00 0.00 0.00 0.00 0.00 0.00 0.00 0.00 0.00 0.00 0.00 0.00 0.00 0.00 0.00 0.00 0.00 0.00 0.01 0.01 0.01 0.01 0.01 0.01 0.01 0.01 0.02 0.02 0.01 0.01 0.01 0.02 0.02 0.02
0.00 0.00 0.00 0.00 0.00 0.00 0.00 0.00 0.00 0.00 0.00 0.00 0.00 0.00 0.00 0.00 0.00 0.00 0.00 0.00 0.00 0.00 0.00 0.00 0.01 0.01 0.01 0.01 0.01 0.01 0.01 0.01 0.01 0.01 0.01 0.02 0.02 0.02 0.02 0.01 0.01 0.02 0.02 0.02
0.00 0.00 0.00 0.00 0.00 0.00 0.00 0.00 0.00 0.00 0.00 0.00 0.00 0.00 0.00 0.00 0.00 0.00 0.00 0.00 0.00 0.00 0.00 0.01 0.01 0.01 0.01 0.01 0.01 0.01 0.00 0.01 0.01 0.01 0.01 0.02 0.02 0.03 0.02 0.01 0.01 0.01 0.02 0.02
0.00 0.00 0.00 0.00 0.00 0.00 0.00 0.00 0.00 0.00 0.00 0.00 0.00 0.00 0.00 0.00 0.00 0.00 0.00 0.00 0.00 0.01 0.01 0.01 0.01 0.01 0.01 0.01 0.01 0.00 0.00 0.01 0.01 0.01 0.02 0.02 0.01 0.01 0.01 0.01 0.01 0.02 0.03 0.02
0.00 0.00 0.00 0.00 0.00 0.00 0.00 0.00 0.00 0.00 0.00 0.00 0.00 0.00 0.00 0.00 0.00 0.00 0.00 0.01 0.01 0.01 0.01 0.01 0.01 0.01 0.01 0.01 0.00 0.00 0.00 0.01 0.01 0.01 0.01 0.01 0.01 0.02 0.02 0.02 0.02 0.03 0.03 0.03
0.00 0.00 0.00 0.00 0.00 0.00 0.00 0.00 0.00 0.00 0.00 0.00 0.00 0.00 0.00 0.00 0.00 0.01 0.01 0.01 0.01 0.01 0.00 0.00 0.01 0.01 0.01 0.01 0.01 0.01 0.01 0.01 0.01 0.01 0.01 0.01 0.01 0.02 0.02 0.02 0.02 0.02 0.03 0.03
0.00 0.00 0.00 0.00 0.00 0.00 0.00 0.00 0.00 0.00 0.00 0.00 0.00 0.00 0.00 0.00 0.00 0.01 0.01 0.00 0.00 0.00 0.00 0.00 0.00 0.00 0.01 0.01 0.01 0.01 0.01 0.01 0.01 0.02 0.02 0.02 0.03 0.04 0.04 0.03 0.04 0.04 0.03 0.02
0.00 0.00 0.00 0.00 0.00 0.00 0.00 0.00 0.00 0.00 0.00 0.00 0.00 0.00 0.00 0.00 0.00 0.01 0.00 0.00 0.00 0.00 0.00 0.00 0.00 0.00 0.00 0.01 0.01 0.01 0.01 0.01 0.01 0.02 0.02 0.02 0.03 0.05 0.06 0.05 0.05 0.04 0.05 0.03
0.00 0.00 0.00 0.00 0.00 0.00 0.00 0.00 0.00 0.00 0.00 0.00 0.00 0.00 0.00 0.00 0.00 0.01 0.01 0.00 0.00 0.00 0.00 0.00 0.00 0.01 0.01 0.01 0.01 0.02 0.02 0.03 0.04 0.03 0.02 0.02 0.03 0.04 0.04 0.04 0.04 0.04 0.03 0.03
0.00 0.00 0.00 0.00 0.00 0.00 0.00 0.00 0.00 0.00 0.00 0.00 0.00 0.00 0.00 0.00 0.00 0.01 0.01 0.01 0.01 0.01 0.01 0.01 0.01 0.01 0.01 0.01 0.02 0.03 0.05 0.04 0.02 0.02 0.02 0.03 0.03 0.03 0.03 0.03 0.04 0.03 0.02 0.01
0.00 0.00 0.00 0.00 0.00 0.00 0.00 0.00 0.00 0.00 0.00 0.00 0.00 0.00 0.00 0.00 0.01 0.01 0.01 0.00 0.01 0.01 0.02 0.02 0.02 0.02 0.01 0.01 0.01 0.02 0.02 0.01 0.02 0.02 0.02 0.03 0.05 0.06 0.05 0.04 0.02 0.01 0.01 0.01
0.00 0.00 0.00 0.00 0.00 0.00 0.00 0.00 0.00 0.00 0.00 0.00 0.00 0.00 0.00 0.00 0.00 0.00 0.00 0.00 0.00 0.01 0.02 0.02 0.02 0.02 0.01 0.01 0.00 0.01 0.01 0.01 0.01 0.01 0.02 0.02 0.03 0.04 0.03 0.02 0.02 0.02 0.01 0.02
0.00 0.00 0.00 0.00 0.00 0.00 0.00 0.00 0.00 0.00 0.00 0.00 0.00 0.00 0.00 0.00 0.00 0.00 0.00 0.00 0.00 0.00 0.00 0.01 0.01 0.01 0.01 0.01 0.01 0.01 0.01 0.01 0.01 0.01 0.02 0.02 0.04 0.05 0.04 0.03 0.03 0.03 0.02 0.02
0.00 0.00 0.00 0.00 0.00 0.00 0.00 0.00 0.00 0.01 0.01 0.00 0.00 0.00 0.00 0.00 0.00 0.00 0.00 0.00 0.00 0.00 0.00 0.00 0.00 0.01 0.01 0.01 0.01 0.01 0.01 0.01 0.02 0.05 0.08 0.08 0.09 0.08 0.07 0.05 0.04 0.03 0.03 0.02
0.00 0.01 0.01 0.00 0.00 0.00 0.00 0.00 0.00 0.01 0.00 0.00 0.00 0.00 0.00 0.00 0.00 0.00 0.00 0.00 0.00 0.00 0.00 0.00 0.00 0.01 0.01 0.01 0.01 0.01 0.02 0.03 0.04 0.05 0.09 0.09 0.10 0.10 0.07 0.05 0.03 0.03 0.03 0.02
0.00 0.01 0.01 0.01 0.01 0.00 0.00 0.00 0.00 0.00 0.00 0.00 0.00 0.00 0.00 0.00 0.01 0.00 0.00 0.00 0.00 0.00 0.00 0.00 0.01 0.01 0.01 0.01 0.01 0.03 0.03 0.03 0.05 0.06 0.08 0.09 0.11 0.14 0.10 0.06 0.04 0.03 0.02 0.02
0.00 0.00 0.01 0.02 0.01 0.01 0.00 0.00 0.00 0.00 0.01 0.01 0.01 0.01 0.00 0.00 0.01 0.01 0.01 0.00 0.00 0.00 0.01 0.01 0.01 0.01 0.01 0.02 0.02 0.03 0.03 0.03 0.04 0.06 0.07 0.09 0.09 0.09 0.09 0.07 0.06 0.05 0.03 0.03
0.00 0.00 0.00 0.01 0.01 0.01 0.01 0.01 0.00 0.00 0.01 0.02 0.01 0.01 0.00 0.00 0.00 0.00 0.00 0.00 0.00 0.00 0.00 0.01 0.01 0.01 0.02 0.02 0.03 0.04 0.05 0.04 0.04 0.05 0.05 0.06 0.08 0.10 0.10 0.07 0.07 0.06 0.04 0.04
0.00 0.00 0.00 0.01 0.01 0.01 0.01 0.01 0.01 0.00 0.00 0.01 0.01 0.01 0.00 0.00 0.00 0.00 0.00 0.00 0.00 0.00 0.00 0.00 0.01 0.02 0.02 0.02 0.03 0.04 0.08 0.08 0.03 0.02 0.02 0.02 0.03 0.04 0.05 0.05 0.05 0.04 0.03 0.03
MSLP
1005.17 1005.90 1006.47 1006.87 1007.10 1007.22 1007.29 1007.37 1007.51 1007.73 1008.04 1008.43 1008.86 1009.33 1009.82 1010.30 1010.77 1011.23 1011.65 1012.03 1012.36 1012.63 1012.81 1012.91 1012.95 1012.95 1012.93 1012.93 1012.97 1013.08 1013.24 1013.46 1013.70 1013.95 1014.16 1014.34 1014.47 1014.54 1014.59 1014.61 1014.64 1014.68 1014.77 1014.89
1005.55 1006.18 1006.63 1006.92 1007.08 1007.17 1007.24 1007.37 1007.57 1007.86 1008.22 1008.63 1009.06 1009.48 1009.88 1010.26 1010.63 1010.99 1011.36 1011.73 1012.09 1012.42 1012.69 1012.88 1013.00 1013.05 1013.05 1013.04 1013.05 1013.11 1013.23 1013.42 1013.65 1013.90 1014.14 1014.34 1014.49 1014.58 1014.62 1014.62 1014.61 1014.62 1014.67 1014.77
1005.74 1006.24 1006.59 1006.78 1006.88 1006.95 1007.06 1007.25 1007.54 1007.91 1008.33 1008.77 1009.17 1009.52 1009.80 1010.05 1010.28 1010.54 1010.84 1011.19 1011.58 1011.98 1012.36 1012.67 1012.91 1013.05 1013.12 1013.14 1013.14 1013.17 1013.26 1013.41 1013.61 1013.85 1014.08 1014.29 1014.45 1014.53 1014.56 1014.54 1014.51 1014.49 1014.51 1014.59
1005.73 1006.12 1006.35 1006.46 1006.52 1006.61 1006.77 1007.05 1007.44 1007.91 1008.40 1008.85 1009.22 1009.48 1009.64 1009.73 1009.81 1009.93 1010.13 1010.44 1010.84 1011.32 1011.81 1012.26 1012.63 1012.90 1013.07 1013.15 1013.19 1013.23 1013.30 1013.42 1013.60 1013.82 1014.04 1014.24 1014.38 1014.46 1014.47 1014.43 1014.38 1014.33 1014.33 1014.39
1005.59 1005.85 1005.98 1006.03 1006.08 1006.19 1006.43 1006.80 1007.30 1007.87 1008.43 1008.90 1009.23 1009.41 1009.44 1009.37 1009.28 1009.25 1009.34 1009.58 1009.97 1010.49 1011.07 1011.65 1012.16 1012.57 1012.86 1013.05 1013.16 1013.23 1013.32 1013.44 1013.61 1013.81 1014.02 1014.20 1014.33 1014.40 1014.40 1014.35 1014.27 1014.21 1014.20 1014.25
1005.36 1005.52 1005.57 1005.57 1005.61 1005.76 1006.07 1006.54 1007.15 1007.80 1008.43 1008.93 1009.24 1009.35 1009.26 1009.05 1008.80 1008.61 1008.57 1008.72 1009.07 1009.59 1010.23 1010.90 1011.53 1012.08 1012.50 1012.80 1013.00 1013.15 1013.28 1013.43 1013.60 1013.80 1014.00 1014.18 1014.31 1014.36 1014.36 1014.30 1014.22 1014.15 1014.12 1014.16
1005.14 1005.20 1005.19 1005.15 1005.19 1005.37 1005.73 1006.28 1006.98 1007.72 1008.41 1008.94 1009.26 1009.32 1009.15 1008.83 1008.45 1008.12 1007.94 1007.98 1008.25 1008.74 1009.38 1010.10 1010.82 1011.46 1012.00 1012.41 1012.72 1012.95 1013.15 1013.34 1013.54 1013.75 1013.96 1014.14 1014.27 1014.33 1014.33 1014.27 1014.19 1014.12 1014.09 1014.11
1004.99 1004.98 1004.90 1004.83 1004.86 1005.05 1005.45 1006.05 1006.80 1007.61 1008.36 1008.94 1009.28 1009.34 1009.14 1008.75 1008.29 1007.86 1007.56 1007.49 1007.66 1008.07 1008.67 1009.37 1010.11 1010.81 1011.42 1011.91 1012.31 1012.62 1012.89 1013.13 1013.38 1013.62 1013.84 1014.03 1014.17 1014.25 1014.26 1014.22 1014.15 1014.09 1014.07 1014.08
1004.95 1004.88 1004.75 1004.64 1004.64 1004.83 1005.23 1005.85 1006.64 1007.49 1008.29 1008.92 1009.31 1009.42 1009.25 1008.86 1008.36 1007.87 1007.50 1007.32 1007.38 1007.68 1008.19 1008.83 1009.53 1010.21 1010.84 1011.38 1011.83 1012.20 1012.52 1012.82 1013.10 1013.36 1013.61 1013.81 1013.97 1014.06 1014.10 1014.08 1014.04 1014.01 1013.99 1014.02
1005.01 1004.90 1004.73 1004.59 1004.56 1004.71 1005.10 1005.71 1006.50 1007.37 1008.21 1008.91 1009.38 1009.57 1009.48 1009.15 1008.69 1008.20 1007.78 1007.53 1007.48 1007.66 1008.03 1008.56 1009.16 1009.78 1010.37 1010.89 1011.35 1011.75 1012.09 1012.41 1012.70 1012.98 1013.24 1013.45 1013.62 1013.74 1013.80 1013.82 1013.81 1013.81 1013.83 1013.87
1005.15 1005.02 1004.83 1004.66 1004.59 1004.71 1005.06 1005.64 1006.42 1007.29 1008.16 1008.93 1009.49 1009.79 1009.83 1009.62 1009.25 1008.81 1008.40 1008.10 1007.96 1008.02 1008.25 1008.62 1009.09 1009.59 1010.08 1010.54 1010.95 1011.32 1011.65 1011.95 1012.24 1012.51 1012.75 1012.96 1013.13 1013.26 1013.34 1013.40 1013.44 1013.49 1013.55 1013.63
1005.32 1005.19 1004.99 1004.82 1004.74 1004.84 1005.15 1005.69 1006.44 1007.31 1008.20 1009.02 1009.68 1010.11 1010.29 1010.22 1009.98 1009.63 1009.27 1008.96 1008.76 1008.71 1008.80 1009.01 1009.31 1009.66 1010.03 1010.38 1010.70 1011.00 1011.27 1011.52 1011.76 1011.98 1012.19 1012.37 1012.52 1012.65 1012.76 1012.85 1012.94 1013.04 1013.17 1013.31
1005.48 1005.37 1005.21 1005.07 1005.00 1005.09 1005.39 1005.90 1006.61 1007.46 1008.36 1009.23 1009.96 1010.51 1010.83 1010.91 1010.81 1010.58 1010.29 1010.00 1009.77 1009.63 1009.59 1009.66 1009.80 1009.99 1010.20 1010.42 1010.63 1010.82 1011.00 1011.16 1011.32 1011.47 1011.61 1011.74 1011.86 1011.97 1012.09 1012.21 1012.35 1012.52 1012.72 1012.94
1005.61 1005.56 1005.47 1005.39 1005.38 1005.50 1005.80 1006.30 1006.98 1007.80 1008.69 1009.57 1010.35 1010.98 1011.41 1011.63 1011.66 1011.54 1011.33 1011.08 1010.84 1010.65 1010.52 1010.46 1010.46 1010.50 1010.56 1010.64 1010.71 1010.78 1010.84 1010.90 1010.95 1011.00 1011.06 1011.12 1011.19 1011.28 1011.40 1011.55 1011.73 1011.96 1012.24 1012.54
1005.73 1005.77 1005.79 1005.81 1005.88 1006.07 1006.40 1006.90 1007.56 1008.35 1009.20 1010.06 1010.85 1011.51 1012.00 1012.31 1012.44 1012.42 1012.28 1012.08 1011.86 1011.63 1011.44 1011.29 1011.17 1011.08 1011.01 1010.95 1010.90 1010.84 1010.78 1010.72 1010.66 1010.61 1010.58 1010.56 1010.57 1010.63 1010.73 1010.90 1011.13 1011.42 1011.76 1012.15
1005.89 1006.05 1006.18 1006.33 1006.53 1006.80 1007.19 1007.70 1008.34 1009.08 1009.87 1010.67 1011.41 1012.05 1012.56 1012.90 1013.09 1013.13 1013.06 1012.90 1012.69 1012.47 1012.24 1012.02 1011.82 1011.63 1011.45 1011.28 1011.11 1010.93 1010.76 1010.59 1010.42 1010.27 1010.15 1010.06 1010.01 1010.04 1010.13 1010.31 1010.57 1010.91 1011.31 1011.77
1006.16 1006.42 1006.69 1006.98 1007.30 1007.68 1008.13 1008.66 1009.27 1009.95 1010.65 1011.35 1012.01 1012.58 1013.04 1013.37 1013.56 1013.63 1013.59 1013.47 1013.29 1013.07 1012.82 1012.56 1012.31 1012.04 1011.78 1011.51 1011.24 1010.97 1010.70 1010.43 1010.17 1009.94 1009.74 1009.60 1009.51 1009.51 1009.59 1009.78 1010.06 1010.43 1010.89 1011.40
1006.58 1006.95 1007.34 1007.76 1008.20 1008.67 1009.17 1009.71 1010.29 1010.89 1011.48 1012.06 1012.59 1013.05 1013.43 1013.69 1013.86 1013.92 1013.89 1013.79 1013.62 1013.40 1013.15 1012.87 1012.57 1012.25 1011.92 1011.58 1011.23 1010.88 1010.52 1010.18 1009.86 1009.57 1009.33 1009.15 1009.04 1009.02 1009.10 1009.29 1009.59 1009.98 1010.47 1011.01
1007.17 1007.62 1008.11 1008.63 1009.17 1009.71 1010.25 1010.79 1011.32 1011.82 1012.30 1012.74 1013.13 1013.46 1013.72 1013.90 1014.01 1014.04 1014.00 1013.90 1013.74 1013.53 1013.27 1012.96 1012.62 1012.25 1011.86 1011.45 1011.03 1010.61 1010.20 1009.81 1009.44 1009.12 1008.86 1008.67 1008.56 1008.55 1008.64 1008.84 1009.15 1009.55 1010.04 1010.60
1007.93 1008.43 1008.99 1009.57 1010.16 1010.74 1011.30 1011.81 1012.27 1012.69 1013.05 1013.35 1013.61 1013.80 1013.95 1014.04 1014.09 1014.08 1014.02 1013.90 1013.73 1013.51 1013.23 1012.90 1012.51 1012.09 1011.64 1011.16 1010.67 1010.19 1009.73 1009.31 1008.92 1008.60 1008.34 1008.16 1008.07 1008.08 1008.19 1008.41 1008.72 1009.13 1009.62 1010.17
1008.81 1009.33 1009.91 1010.51 1011.12 1011.71 1012.25 1012.72 1013.12 1013.44 1013.70 1013.89 1014.02 1014.11 1014.15 1014.17 1014.15 1014.10 1014.02 1013.89 1013.70 1013.46 1013.15 1012.77 1012.33 1011.85 1011.32 1010.78 1010.23 1009.69 1009.19 1008.74 1008.35 1008.04 1007.80 1007.66 1007.60 1007.65 1007.79 1008.02 1008.34 1008.75 1009.23 1009.77
1009.74 1010.25 1010.82 1011.42 1012.01 1012.57 1013.07 1013.49 1013.83 1014.08 1014.24 1014.34 1014.38 1014.39 1014.37 1014.33 1014.27 1014.19 1014.09 1013.94 1013.73 1013.46 1013.11 1012.68 1012.18 1011.62 1011.03 1010.41 1009.79 1009.21 1008.67 1008.21 1007.82 1007.52 1007.32 1007.21 1007.20 1007.28 1007.46 1007.71 1008.04 1008.45 1008.92 1009.44
1010.66 1011.15 1011.68 1012.24 1012.79 1013.31 1013.76 1014.13 1014.40 1014.59 1014.70 1014.73 1014.73 1014.68 1014.63 1014.56 1014.48 1014.39 1014.27 1014.10 1013.87 1013.57 1013.18 1012.70 1012.14 1011.51 1010.84 1010.16 1009.49 1008.86 1008.29 1007.81 1007.43 1007.15 1006.98 1006.91 1006.94 1007.06 1007.27 1007.54 1007.89 1008.30 1008.76 1009.27
1011.50 1011.95 1012.45 1012.96 1013.46 1013.92 1014.32 1014.63 1014.87 1015.01 1015.07 1015.08 1015.05 1014.99 1014.92 1014.85 1014.77 1014.67 1014.55 1014.38 1014.13 1013.80 1013.38 1012.86 1012.25 1011.57 1010.85 1010.12 1009.40 1008.73 1008.15 1007.66 1007.28 1007.02 1006.88 1006.84 1006.90 1007.05 1007.28 1007.57 1007.92 1008.33 1008.79 1009.29
1012.22 1012.65 1013.11 1013.57 1014.01 1014.42 1014.77 1015.04 1015.23 1015.35 1015.40 1015.39 1015.36 1015.30 1015.24 1015.18 1015.10 1015.02 1014.89 1014.72 1014.47 1014.13 1013.69 1013.15 1012.52 1011.82 1011.07 1010.31 1009.58 1008.90 1008.30 1007.81 1007.44 1007.19 1007.06 1007.04 1007.12 1007.28 1007.52 1007.82 1008.18 1008.58 1009.03 1009.52
1012.81 1013.22 1013.64 1014.06 1014.46 1014.81 1015.12 1015.35 1015.52 1015.62 1015.66 1015.66 1015.62 1015.58 1015.52 1015.47 1015.41 1015.33 1015.22 1015.06 1014.82 1014.49 1014.06 1013.52 1012.90 1012.21 1011.47 1010.73 1010.00 1009.34 1008.75 1008.27 1007.91 1007.67 1007.54 1007.52 1007.60 1007.76 1007.99 1008.29 1008.63 1009.03 1009.47 1009.95
Thickness
5846 5838 5833 5840 5845 5844 5840 5832 5827 5829 5838 5830 5822 5821 5823 5825 5820 5815 5810 5807 5804 5803 5805 5803 5800 5797 5793 5788 5785 5782 5779 5777 5775 5773 5772 5769 5768 5768 5767 5767 5764 5762 5760 5759
5831 5830 5846 5850 5845 5840 5836 5829 5828 5830 5835 5830 5824 5823 5829 5828 5823 5821 5816 5812 5810 5808 5806 5803 5801 5798 5795 5790 5787 5784 5781 5780 5777 5775 5773 5771 5770 5770 5769 5767 5764 5762 5760 5758
5826 5839 5847 5838 5833 5830 5831 5831 5831 5827 5829 5831 5824 5819 5824 5829 5829 5826 5824 5822 5819 5814 5809 5806 5803 5801 5798 5794 5791 5789 5784 5782 5779 5778 5776 5773 5770 5769 5768 5765 5764 5762 5760 5758
5830 5841 5836 5831 5830 5833 5825 5840 5836 5829 5821 5821 5821 5811 5823 5828 5825 5824 5824 5824 5822 5820 5816 5811 5808 5804 5801 5799 5797 5792 5787 5783 5780 5778 5777 5773 5769 5767 5767 5766 5765 5763 5761 5759
5824 5832 5829 5825 5833 5837 5835 5841 5835 5830 5824 5820 5823 5814 5823 5829 5822 5825 5828 5828 5827 5825 5821 5816 5813 5809 5807 5804 5800 5795 5789 5785 5782 5780 5777 5773 5772 5771 5770 5768 5764 5762 5762 5759
5830 5839 5838 5836 5841 5840 5836 5831 5826 5827 5826 5805 5816 5812 5813 5830 5827 5831 5834 5832 5831 5829 5825 5820 5818 5813 5809 5806 5802 5797 5790 5785 5783 5780 5778 5774 5771 5769 5767 5764 5763 5763 5763 5761
5810 5822 5834 5840 5827 5828 5829 5815 5801 5798 5800 5804 5818 5812 5817 5834 5838 5837 5836 5835 5833 5831 5827 5822 5817 5812 5808 5805 5802 5798 5792 5786 5784 5781 5778 5775 5771 5768 5765 5765 5764 5762 5762 5760
5798 5801 5821 5831 5829 5822 5824 5822 5800 5787 5794 5808 5810 5809 5825 5839 5841 5841 5841 5839 5835 5832 5829 5824 5820 5815 5809 5805 5801 5797 5792 5787 5784 5781 5777 5775 5772 5770 5769 5765 5764 5762 5761 5760
5807 5805 5826 5831 5836 5833 5820 5822 5835 5818 5810 5805 5812 5817 5828 5838 5835 5836 5836 5834 5831 5830 5828 5825 5821 5816 5811 5806 5801 5798 5792 5787 5785 5782 5778 5774 5771 5769 5767 5764 5763 5762 5759 5758
5816 5802 5815 5823 5827 5826 5832 5831 5821 5813 5790 5787 5801 5808 5815 5823 5826 5830 5830 5829 5828 5828 5826 5824 5822 5817 5813 5807 5802 5798 5793 5788 5785 5782 5778 5775 5771 5768 5765 5763 5760 5758 5756 5754
5816 5801 5804 5809 5808 5812 5813 5815 5816 5815 5812 5795 5791 5806 5830 5827 5828 5827 5828 5828 5827 5826 5824 5822 5820 5817 5813 5807 5802 5796 5792 5788 5784 5781 5777 5773 5769 5766 5763 5760 5757 5755 5753 5751
5808 5806 5797 5805 5819 5826 5822 5819 5814 5800 5797 5803 5802 5807 5834 5832 5833 5830 5828 5826 5826 5824 5823 5821 5818 5814 5810 5805 5800 5795 5791 5787 5784 5781 5776 5771 5768 5764 5760 5757 5754 5752 5749 5748
5800 5794 5779 5784 5796 5807 5809 5814 5817 5817 5809 5803 5799 5804 5827 5826 5826 5826 5823 5821 5819 5818 5817 5816 5813 5809 5805 5802 5798 5794 5790 5786 5783 5779 5774 5770 5766 5762 5758 5754 5751 5749 5747 5744
5797 5792 5787 5784 5795 5804 5798 5804 5809 5808 5804 5801 5804 5807 5812 5815 5815 5817 5817 5816 5815 5812 5810 5809 5806 5803 5801 5798 5794 5790 5787 5785 5782 5777 5772 5767 5763 5760 5755 5751 5748 5745 5743 5741
5791 5783 5788 5797 5804 5805 5801 5800 5802 5801 5807 5805 5808 5809 5809 5811 5812 5812 5813 5811 5808 5805 5804 5802 5800 5798 5795 5793 5791 5787 5784 5781 5778 5773 5768 5764 5761 5757 5752 5747 5743 5740 5738 5737
5781 5776 5779 5779 5791 5794 5789 5794 5797 5798 5802 5804 5805 5802 5813 5813 5811 5806 5805 5803 5800 5798 5798 5797 5795 5794 5791 5789 5787 5784 5780 5777 5773 5768 5764 5761 5757 5753 5748 5743 5739 5736 5734 5731
5771 5767 5765 5768 5779 5777 5771 5786 5791 5792 5798 5800 5795 5800 5804 5800 5799 5799 5798 5798 5795 5794 5793 5792 5791 5789 5787 5785 5784 5780 5777 5774 5769 5764 5760 5757 5753 5749 5745 5742 5737 5733 5729 5727
5758 5758 5762 5764 5758 5744 5775 5795 5793 5788 5790 5796 5795 5797 5797 5795 5796 5797 5796 5793 5790 5790 5789 5788 5787 5786 5785 5783 5781 5777 5774 5769 5764 5760 5756 5753 5749 5745 5741 5737 5732 5729 5726 5722
5758 5751 5754 5754 5748 5754 5767 5780 5783 5777 5775 5787 5787 5788 5791 5793 5790 5788 5790 5789 5787 5787 5786 5784 5784 5783 5780 5778 5775 5771 5768 5765 5760 5756 5752 5749 5745 5741 5737 5732 5728 5725 5722 5718
5747 5747 5747 5745 5740 5741 5761 5775 5781 5774 5761 5780 5781 5779 5782 5783 5778 5778 5782 5782 5781 5781 5780 5778 5779 5777 5773 5771 5769 5764 5761 5759 5755 5752 5749 5745 5741 5736 5732 5728 5724 5721 5717 5713
5729 5731 5736 5737 5736 5748 5757 5766 5766 5747 5754 5771 5773 5773 5774 5774 5774 5774 5776 5775 5774 5773 5772 5772 5770 5768 5766 5764 5762 5757 5754 5751 5750 5747 5743 5738 5735 5731 5727 5723 5719 5716 5713 5709
5724 5726 5725 5732 5729 5733 5749 5752 5748 5748 5757 5761 5763 5764 5764 5764 5765 5765 5765 5764 5764 5763 5763 5762 5760 5758 5758 5756 5753 5749 5746 5745 5742 5739 5735 5732 5729 5728 5725 5719 5715 5711 5707 5703
5719 5721 5728 5728 5727 5732 5740 5741 5743 5748 5747 5750 5753 5754 5754 5753 5754 5755 5755 5755 5755 5755 5754 5753 5751 5749 5749 5748 5746 5742 5740 5738 5734 5730 5727 5725 5723 5720 5718 5714 5709 5706 5703 5701
5708 5712 5716 5714 5719 5725 5729 5733 5736 5739 5739 5742 5744 5745 5746 5745 5746 5746 5746 5746 5745 5745 5745 5744 5743 5741 5739 5739 5738 5736 5734 5731 5727 5722 5720 5718 5715 5713 5710 5707 5704 5702 5700 5697
5699 5702 5704 5703 5708 5714 5718 5721 5724 5727 5730 5732 5734 5736 5736 5736 5736 5737 5736 5736 5736 5735 5736 5735 5733 5732 5731 5730 5729 5729 5726 5723 5719 5716 5713 5712 5710 5708 5703 5700 5697 5696 5694 5692
5694 5695 5696 5698 5702 5703 5704 5711 5715 5715 5717 5721 5722 5723 5726 5727 5727 5728 5727 5727 5727 5728 5727 5726 5725 5724 5723 5723 5721 5722 5719 5716 5712 5709 5707 5706 5704 5701 5698 5694 5690 5685 5684 5680